Weather History for Warrensburg, MO

Change the Weather History Date:

Monday, October 14, 2013

  Actual Average (KSZL) Record (KSZL)
Temperature  
Mean Temperature 56 °F -  
Max Temperature 68 °F 66 °F 82 °F (2005)
Min Temperature 44 °F 45 °F 33 °F (2006)
Degree Days  
Heating Degree Days 9    
Growing Degree Days 6 (Base 50)    
Moisture  
Dew Point 43 °F    
Average Humidity 62    
Maximum Humidity 88    
Minimum Humidity 32    
Precipitation  
Precipitation 0.00 in - - ()
Sea Level Pressure  
Sea Level Pressure 30.14 in    
Wind  
Wind Speed 6 mph (ESE)    
Max Wind Speed 17 mph    
Max Gust Speed 23 mph    
Visibility 10 miles    
Events Rain    
Averages and records for this station are not official NWS values.
T = Trace of Precipitation, MM = Missing Value Source: NWS Daily Summary

Daily Weather History Graph

Daily Weather History Graph

Search for Another Location

Airport:

Trip Planner

Search our weather history database for the weather conditions in past years. The results will help you decide how hot, cold, wet, or windy it might be!

Date:

Astronomy

Oct. 14, 2013 Rise Set
Actual Time 7:23 AM CDT 6:37 PM CDT
Civil Twilight 6:57 AM CDT 7:04 PM CDT
Nautical Twilight 6:26 AM CDT 7:35 PM CDT
Astronomical Twilight 5:55 AM CDT 8:06 PM CDT
Moon 4:05 PM CDT (10/14) 2:43 AM CDT (10/14)
Length of Visible Light 12h 07m
Length of Day
11h 14m
Waxing Gibbous, 79% of the Moon is Illuminated
Oct 14
Waxing Gibbous
Oct 18
Full
Oct 26
Last Quarter
Nov 3
New
Nov 9
First Quarter

Hourly Weather History & Observations

Time (CDT) Temp. Windchill Dew Point Humidity Pressure Visibility Wind Dir Wind Speed Gust Speed Precip Events Conditions
12:15 AM 46.4 °F 45.2 °F 35.6 °F 66% 30.31 in 10.0 mi East 3.5 mph - N/A   Clear
12:35 AM 48.2 °F - 35.6 °F 62% 30.31 in 10.0 mi East 3.5 mph - N/A   Clear
12:55 AM 48.2 °F - 35.6 °F 62% 30.30 in 10.0 mi East 4.6 mph - N/A   Clear
1:15 AM 48.2 °F - 35.6 °F 62% 30.31 in 10.0 mi East 4.6 mph - N/A   Clear
1:35 AM 48.2 °F - 35.6 °F 62% 30.31 in 10.0 mi ENE 4.6 mph - N/A   Clear
1:55 AM 44.6 °F - 35.6 °F 71% 30.30 in 10.0 mi Calm Calm - N/A   Clear
2:15 AM 46.4 °F 45.2 °F 35.6 °F 66% 30.30 in 10.0 mi ENE 3.5 mph - N/A   Clear
2:35 AM 44.6 °F - 35.6 °F 71% 30.30 in 10.0 mi Calm Calm - N/A   Clear
2:55 AM 44.6 °F - 35.6 °F 71% 30.29 in 10.0 mi Calm Calm - N/A   Clear
3:15 AM 46.4 °F - 35.6 °F 66% 30.29 in 10.0 mi Calm Calm - N/A   Clear
3:35 AM 44.6 °F - 37.4 °F 76% 30.29 in 10.0 mi Calm Calm - N/A   Clear
3:55 AM 44.6 °F - 35.6 °F 71% 30.28 in 10.0 mi Calm Calm - N/A   Clear
4:15 AM 44.6 °F 42.2 °F 35.6 °F 71% 30.27 in 10.0 mi NE 4.6 mph - N/A   Clear
4:35 AM 44.6 °F - 35.6 °F 71% 30.28 in 10.0 mi Calm Calm - N/A   Clear
4:55 AM 44.6 °F - 35.6 °F 71% 30.27 in 10.0 mi Calm Calm - N/A   Clear
5:15 AM 44.6 °F - 37.4 °F 76% 30.26 in 10.0 mi Calm Calm - N/A   Clear
5:35 AM 44.6 °F 42.2 °F 37.4 °F 76% 30.25 in 10.0 mi ENE 4.6 mph - N/A   Clear
5:55 AM 48.2 °F - 35.6 °F 62% 30.24 in 10.0 mi East 5.8 mph - N/A   Clear
6:15 AM 48.2 °F - 35.6 °F 62% 30.24 in 5.0 mi East 5.8 mph - N/A   Haze
6:35 AM 50.0 °F - 35.6 °F 58% 30.24 in 10.0 mi East 5.8 mph - N/A   Clear
6:55 AM 48.2 °F - 37.4 °F 66% 30.23 in 5.0 mi East 4.6 mph - N/A   Haze
7:15 AM 50.0 °F - 35.6 °F 58% 30.23 in 10.0 mi East 5.8 mph - N/A   Clear
7:35 AM 51.8 °F - 35.6 °F 54% 30.23 in 10.0 mi East 5.8 mph - N/A   Clear
7:55 AM 51.8 °F - 35.6 °F 54% 30.22 in 10.0 mi East 6.9 mph - N/A   Clear
8:15 AM 51.8 °F - 35.6 °F 54% 30.24 in 10.0 mi ESE 4.6 mph - N/A   Clear
8:35 AM 51.8 °F - 35.6 °F 54% 30.23 in 10.0 mi East 4.6 mph - N/A   Clear
8:55 AM 53.6 °F - 35.6 °F 51% 30.22 in 10.0 mi ENE 6.9 mph - N/A   Clear
9:15 AM 53.6 °F - 35.6 °F 51% 30.22 in 10.0 mi ESE 5.8 mph - N/A   Clear
9:35 AM 55.4 °F - 35.6 °F 47% 30.21 in 10.0 mi ESE 9.2 mph - N/A   Clear
9:55 AM 59.0 °F - 35.6 °F 42% 30.20 in 10.0 mi East 10.4 mph - N/A   Clear
10:15 AM 60.8 °F - 35.6 °F 39% 30.20 in 10.0 mi ESE 9.2 mph - N/A   Clear
10:35 AM 60.8 °F - 37.4 °F 42% 30.20 in 10.0 mi ESE 10.4 mph - N/A   Clear
10:55 AM 62.6 °F - 37.4 °F 39% 30.19 in 10.0 mi ESE 12.7 mph 18.4 mph N/A   Clear
11:15 AM 62.6 °F - 37.4 °F 39% 30.18 in 10.0 mi ESE 10.4 mph - N/A   Clear
11:35 AM 64.4 °F - 37.4 °F 37% 30.18 in 10.0 mi SE 17.3 mph - N/A   Clear
11:55 AM 66.2 °F - 35.6 °F 32% 30.16 in 10.0 mi ESE 15.0 mph - N/A   Clear
12:15 PM 68.0 °F - 37.4 °F 33% 30.16 in 10.0 mi ESE 12.7 mph - N/A   Clear
12:35 PM 68.0 °F - 37.4 °F 33% 30.15 in 10.0 mi SE 12.7 mph 18.4 mph N/A   Clear
12:55 PM 68.0 °F - 37.4 °F 33% 30.13 in 10.0 mi ESE 15.0 mph 21.9 mph N/A   Clear
1:15 PM 68.0 °F - 41.0 °F 37% 30.12 in 10.0 mi SE 16.1 mph 20.7 mph N/A   Clear
1:35 PM 68.0 °F - 41.0 °F 37% 30.11 in 10.0 mi SE 16.1 mph 20.7 mph N/A   Clear
1:55 PM 68.0 °F - 42.8 °F 40% 30.09 in 10.0 mi SE 16.1 mph - N/A   Clear
2:15 PM 66.2 °F - 44.6 °F 46% 30.08 in 10.0 mi SE 15.0 mph 20.7 mph N/A   Clear
2:35 PM 66.2 °F - 44.6 °F 46% 30.07 in 10.0 mi SE 16.1 mph - N/A   Clear
2:55 PM 64.4 °F - 44.6 °F 49% 30.06 in 10.0 mi SE 11.5 mph 18.4 mph N/A   Clear
3:15 PM 64.4 °F - 46.4 °F 52% 30.05 in 10.0 mi ESE 10.4 mph - N/A   Mostly Cloudy
3:35 PM 62.6 °F - 48.2 °F 59% 30.04 in 10.0 mi ESE 10.4 mph - N/A Rain Light Rain
3:55 PM 64.4 °F - 48.2 °F 56% 30.04 in 10.0 mi SE 13.8 mph 18.4 mph N/A   Mostly Cloudy
4:15 PM 62.6 °F - 50.0 °F 63% 30.03 in 10.0 mi ESE 8.1 mph - N/A   Light Drizzle
4:55 PM 60.8 °F - 50.0 °F 68% 30.02 in 10.0 mi ESE 8.1 mph - N/A   Scattered Clouds
5:15 PM 60.8 °F - 51.8 °F 72% 30.01 in 10.0 mi ESE 11.5 mph - N/A   Light Drizzle
5:35 PM 60.8 °F - 51.8 °F 72% 30.00 in 10.0 mi ESE 8.1 mph - N/A   Light Drizzle
5:55 PM 60.8 °F - 51.8 °F 72% 30.00 in 10.0 mi ESE 9.2 mph - N/A   Mostly Cloudy
6:35 PM 60.8 °F - 51.8 °F 72% 29.99 in 10.0 mi SE 6.9 mph - N/A   Clear
6:55 PM 60.8 °F - 53.6 °F 77% 29.98 in 10.0 mi ESE 10.4 mph - N/A   Drizzle
7:15 PM 60.8 °F - 53.6 °F 77% 29.99 in 10.0 mi ESE 9.2 mph - N/A Rain Light Rain
8:15 PM 60.8 °F - 55.4 °F 82% 29.97 in 10.0 mi ESE 10.4 mph - N/A   Mostly Cloudy
8:35 PM 60.8 °F - 55.4 °F 82% 29.96 in 10.0 mi SE 12.7 mph - N/A Rain Light Rain
8:55 PM 60.8 °F - 55.4 °F 82% 29.97 in 10.0 mi SE 10.4 mph - N/A Rain Rain
9:15 PM 60.8 °F - 55.4 °F 82% 29.97 in 10.0 mi SE 12.7 mph 18.4 mph N/A   Light Drizzle
9:35 PM 60.8 °F - 57.2 °F 88% 29.95 in 10.0 mi SE 13.8 mph 18.4 mph N/A   Light Drizzle
9:55 PM 60.8 °F - 57.2 °F 88% 29.95 in 10.0 mi SSE 13.8 mph 19.6 mph N/A Rain Light Rain
10:15 PM 60.8 °F - 57.2 °F 88% 29.95 in 7.0 mi SSE 16.1 mph 21.9 mph N/A Rain Light Rain
10:35 PM 60.8 °F - 57.2 °F 88% 29.94 in 10.0 mi SSE 16.1 mph 23.0 mph N/A   Overcast
10:55 PM 60.8 °F - 57.2 °F 88% 29.94 in 10.0 mi SSE 16.1 mph 20.7 mph N/A   Overcast
11:15 PM 60.8 °F - 57.2 °F 88% 29.93 in 10.0 mi SSE 11.5 mph 19.6 mph N/A   Overcast
11:35 PM 62.6 °F - 57.2 °F 82% 29.93 in 10.0 mi SSE 12.7 mph 17.3 mph N/A   Overcast
11:55 PM 62.6 °F - 57.2 °F 82% 29.92 in 10.0 mi SSE 11.5 mph - N/A Rain Light Rain